Theta_e
347 345 344 345 345 345 348 349 349 347 348 350 351 350 349 349 349 349 351 354 355 357 355 353 357 354 354 356 357 355 357 349 353 355 353 352 354 353 354 353 353 355 351
350 346 345 345 346 347 350 351 351 352 351 350 350 349 349 348 348 348 348 352 354 356 354 356 354 354 355 350 347 355 347 348 355 356 351 353 351 354 355 353 352 354 354
350 347 346 345 346 347 350 351 353 353 352 351 351 351 350 350 348 348 349 350 354 357 358 359 355 358 350 355 354 352 352 357 355 353 357 355 352 339 350 353 352 355 352
350 349 346 346 346 347 349 351 352 353 353 348 351 351 351 349 348 348 346 348 354 358 356 359 360 359 353 355 351 353 352 348 351 353 353 350 351 356 352 353 354 352 351
348 349 347 346 346 345 346 349 352 354 352 352 348 351 351 349 348 348 346 349 354 356 357 357 360 358 354 352 355 354 345 355 353 352 353 357 355 357 354 353 355 355 353
347 348 349 346 346 345 344 346 349 349 345 348 343 347 352 350 348 348 346 353 350 353 350 355 361 362 360 358 359 357 350 350 355 354 354 352 353 353 358 352 353 353 352
345 347 348 348 346 345 344 344 346 347 346 346 352 342 344 349 347 351 347 351 349 351 354 355 357 360 355 354 360 358 352 353 354 352 355 355 353 354 353 354 353 353 353
345 347 348 348 348 346 346 345 345 346 349 351 344 347 342 352 352 351 347 348 352 350 353 359 356 358 363 363 361 355 357 356 352 353 352 358 356 356 355 356 354 354 354
348 347 348 348 348 348 347 346 345 348 352 349 348 344 342 345 353 350 346 350 349 351 358 358 356 357 361 363 362 359 358 355 355 353 357 356 351 357 357 357 356 356 354
348 348 347 348 348 348 348 347 347 347 353 356 355 348 343 344 352 351 350 349 352 352 354 357 356 359 361 360 359 358 357 356 360 359 357 356 354 358 358 356 356 357 356
349 350 349 348 348 348 348 349 348 348 351 356 355 356 351 354 349 353 352 353 355 356 357 352 352 358 359 359 360 358 356 354 354 359 356 359 357 359 356 353 354 354 354
350 351 351 349 348 347 349 349 349 349 350 354 354 355 357 355 357 354 354 355 356 357 359 351 347 348 349 351 350 347 356 357 352 354 358 360 359 357 353 348 350 351 350
353 352 352 352 349 348 350 351 351 349 351 350 354 355 357 356 357 355 354 356 357 357 347 345 346 347 345 346 346 347 348 352 357 357 355 351 350 348 348 349 348 345 346
354 354 355 354 353 354 354 353 349 347 344 339 351 355 357 359 360 356 347 347 346 346 349 348 349 349 347 347 347 347 346 345 345 348 348 348 348 347 347 347 346 343 345
355 356 357 357 356 355 352 348 345 339 336 345 353 353 354 351 353 351 353 353 352 349 348 347 346 345 345 347 340 339 339 339 341 344 345 343 342 342 341 329 336 336 337
355 356 354 354 353 357 353 350 355 343 344 352 351 349 350 345 343 344 346 348 349 346 343 340 339 338 339 339 338 338 338 339 337 335 336 335 329 333 332 332 332 328 323
354 351 350 347 348 352 357 356 353 352 351 349 345 344 339 338 335 331 331 337 338 336 339 341 340 338 338 337 336 334 326 328 326 322 328 334 333 332 336 337 334 328 333
351 348 347 349 349 349 349 351 348 347 345 342 338 335 334 333 332 335 336 338 337 336 336 336 335 336 336 336 335 330 323 321 316 324 318 321 326 330 328 323 322 327 331
350 349 347 347 347 348 347 345 346 344 342 342 342 341 340 339 340 337 336 335 336 335 333 333 331 326 324 318 316 317 318 315 317 316 316 321 320 320 322 324 321 321 321
352 351 350 344 345 346 346 345 344 344 342 340 337 331 332 337 339 338 336 334 332 332 332 331 327 324 318 317 318 318 318 318 318 315 316 320 323 325 325 324 323 320 319
348 348 347 347 347 347 345 342 341 340 338 336 335 331 328 323 323 323 326 329 331 331 331 331 332 329 327 329 322 319 318 323 323 323 324 324 325 325 325 323 320 318 319
344 344 345 344 344 342 340 338 337 335 334 334 330 324 321 325 328 318 318 319 323 325 329 324 324 327 329 327 324 321 319 318 318 319 324 325 325 324 323 321 319 319 321
342 342 341 339 338 338 338 337 335 334 334 334 331 324 323 321 316 315 315 323 324 325 325 325 326 326 327 327 326 325 322 320 319 323 322 321 321 319 318 321 321 322 322
341 339 338 337 337 336 336 334 333 333 333 331 328 320 317 315 314 322 323 323 324 324 325 325 325 325 325 327 327 324 322 322 321 321 319 315 314 318 321 323 325 326 327
339 337 336 337 336 334 334 333 331 328 329 321 322 322 323 323 323 323 322 319 319 314 314 318 321 321 322 324 322 320 316 316 315 313 312 315 316 317 319 322 324 324 326
338 337 335 335 334 331 330 328 326 323 323 322 322 320 321 321 321 320 320 320 318 317 316 316 313 317 318 318 316 315 313 312 311 311 314 317 319 319 320 320 320 321 322
Wind_Speed
21 22 23 23 22 22 21 20 19 20 20 18 16 14 14 12 12 12 12 11 10 10 6 7 8 6 10 9 3 3 8 8 11 14 16 10 6 7 12 4 6 8 2
22 24 26 26 26 24 23 22 21 20 21 18 17 15 13 12 12 12 12 13 12 9 9 8 5 7 15 3 6 6 7 8 9 16 8 1 14 16 10 5 5 5 5
25 26 28 29 28 28 28 26 25 23 23 21 17 16 15 14 12 14 14 14 14 12 10 9 10 5 11 11 2 4 5 9 4 12 10 10 2 15 6 7 6 6 5
24 26 29 32 32 31 28 28 27 27 25 26 21 20 16 16 14 13 12 13 15 12 12 12 11 10 10 8 5 5 6 7 7 5 9 13 8 11 4 5 8 4 6
24 28 31 32 32 31 30 28 29 27 28 26 26 22 22 16 14 13 13 15 16 12 11 11 12 11 9 14 12 10 7 6 7 7 10 6 7 5 5 4 9 2 5
21 27 30 31 32 31 31 29 30 31 30 31 28 28 23 20 17 16 14 14 14 15 13 12 12 11 11 13 6 9 10 9 10 8 10 8 8 7 6 8 8 7 8
12 23 29 33 33 33 32 31 32 32 31 31 30 29 32 26 22 15 16 16 14 15 17 14 12 11 11 12 11 11 11 13 13 12 8 9 9 9 9 10 10 10 7
6 14 25 30 32 33 33 32 31 32 29 29 30 29 27 26 23 23 18 17 16 13 16 12 11 11 10 11 14 13 12 13 14 13 12 10 10 9 10 10 10 11 13
5 8 14 24 30 32 34 33 31 30 28 27 27 28 28 27 23 22 19 19 20 15 11 18 15 13 12 12 13 12 14 13 14 14 14 13 10 13 10 13 12 12 13
3 5 8 14 23 28 31 32 31 29 26 24 26 28 27 27 24 23 21 21 20 24 19 14 16 12 12 11 13 13 14 14 13 12 13 12 10 11 10 11 14 13 12
3 3 5 10 16 22 26 29 30 28 26 23 26 26 26 25 26 22 22 21 21 18 20 21 12 6 10 10 11 15 16 15 15 14 13 11 12 10 9 9 11 13 15
3 3 3 7 12 17 20 22 24 23 23 19 24 27 25 25 23 23 20 19 19 18 20 21 21 19 18 17 15 14 14 13 12 14 14 10 9 10 12 13 12 12 14
5 4 3 4 8 13 13 14 16 21 24 21 19 22 22 24 23 21 21 20 21 24 23 23 23 22 21 18 15 14 14 14 9 8 9 11 12 13 10 12 13 10 9
7 7 7 8 10 11 13 11 17 23 24 18 22 22 19 15 15 20 26 27 26 24 22 23 24 22 19 17 15 15 12 10 9 9 10 10 10 11 9 9 12 11 10
10 10 9 9 10 9 8 6 6 15 16 13 14 15 15 8 1 3 8 10 17 17 15 17 17 17 11 7 6 5 7 6 9 9 10 9 14 16 20 18 13 16 16
12 12 11 10 9 10 9 11 13 15 15 21 17 15 16 14 15 11 6 4 7 12 12 11 10 10 6 10 7 7 10 9 14 16 15 14 14 11 14 17 18 18 17
7 8 10 10 10 12 16 19 16 16 16 18 24 15 17 12 10 12 12 19 20 15 16 16 16 13 14 12 10 12 12 10 15 16 15 12 9 17 10 12 17 14 13
8 8 10 13 14 16 17 17 16 16 18 14 9 6 6 9 9 12 15 20 16 11 10 11 14 15 16 19 19 14 12 15 14 22 19 16 15 13 18 20 20 16 14
10 10 12 16 17 19 18 20 17 14 11 9 9 7 5 3 5 6 8 8 8 9 13 14 13 10 11 11 12 11 12 13 17 15 17 17 19 19 20 22 23 24 24
16 16 14 15 18 20 19 17 14 11 10 9 9 9 9 9 8 5 5 6 6 6 6 8 9 9 9 11 11 11 10 12 14 16 16 14 14 18 22 26 28 29 26
17 17 16 16 18 18 17 16 14 11 9 9 7 10 8 5 3 4 3 3 4 7 6 7 8 8 8 11 13 13 12 10 10 11 11 12 17 22 27 29 29 29 29
18 17 18 17 17 16 16 16 14 11 9 7 7 5 4 4 2 4 6 6 7 5 8 9 7 6 8 11 12 13 14 15 16 15 13 15 22 25 28 28 27 25 26
16 15 15 16 16 15 13 13 11 9 7 6 3 2 3 4 4 4 5 3 8 6 6 6 6 6 7 8 13 15 16 15 12 12 16 19 22 24 24 21 21 22 24
17 15 15 16 16 12 11 10 8 6 4 2 1 3 3 5 4 2 4 4 5 5 5 6 7 6 7 5 3 6 9 12 13 15 18 25 23 19 20 20 19 17 18
19 18 20 10 15 18 14 11 7 3 1 1 0 1 1 2 4 4 3 4 8 10 8 6 7 7 7 11 13 16 14 13 17 22 25 20 19 18 17 17 17 18 16
22 18 16 14 13 14 12 8 5 5 4 2 1 2 1 3 4 5 7 12 11 15 14 12 10 6 10 12 12 14 16 18 22 24 20 16 16 18 17 21 22 19 21
Wind_Direction
202 201 200 200 198 198 196 197 197 199 194 195 201 203 211 219 222 223 224 234 232 255 220 247 220 226 238 253 314 307 295 286 256 260 235 177 199 206 212 197 192 188 215
204 200 199 199 199 199 199 199 197 203 196 202 204 210 215 221 228 230 231 231 233 238 233 242 266 255 276 194 278 266 264 267 263 282 300 179 242 197 189 190 206 216 224
206 200 199 200 200 201 201 203 202 204 206 197 210 213 217 225 228 229 228 233 227 227 246 249 242 258 258 267 199 281 247 295 237 270 298 325 96 180 51 167 216 196 218
210 204 203 202 203 205 205 205 208 206 216 208 210 216 218 222 228 230 229 226 220 221 239 242 238 246 235 236 272 246 223 269 285 306 287 303 340 358 61 208 195 202 225
208 210 205 207 207 204 205 208 209 210 209 226 213 221 222 225 226 227 223 221 224 218 230 231 228 227 224 232 195 228 234 239 251 268 292 293 313 308 304 304 191 136 244
204 212 210 208 209 207 205 206 211 220 222 217 233 215 223 221 225 225 221 213 211 226 210 215 228 234 237 267 283 256 247 247 235 244 265 277 284 279 262 280 279 273 273
229 205 211 208 207 207 205 205 207 224 223 223 221 229 218 224 217 219 221 217 222 216 215 198 219 246 256 234 237 253 260 255 243 256 242 265 268 270 276 283 285 288 277
221 219 209 212 209 209 208 207 206 220 222 218 222 226 225 220 221 227 216 223 227 226 206 212 206 240 239 251 256 254 261 274 244 242 250 249 262 263 259 260 277 286 281
226 221 220 210 212 210 212 211 209 211 215 219 221 223 225 215 218 214 227 214 217 231 237 224 204 213 235 246 250 263 269 260 251 248 253 253 256 266 245 267 267 271 281
217 204 217 216 211 213 213 214 211 211 212 214 213 216 221 221 206 213 213 212 215 228 249 247 211 200 228 242 256 263 274 271 250 249 255 261 265 279 286 272 266 265 266
198 185 215 210 214 210 211 214 213 212 214 215 213 207 209 212 207 208 213 209 215 220 240 255 260 243 240 245 248 251 255 248 255 252 254 271 268 264 258 263 273 268 258
146 146 222 223 206 208 203 207 210 208 213 205 220 211 206 200 204 204 211 212 214 221 225 235 239 239 235 236 239 256 254 259 255 270 276 279 270 260 270 284 276 258 252
172 168 140 151 180 169 168 169 177 185 186 165 242 218 212 199 201 205 206 214 215 220 230 236 240 239 239 244 247 241 251 263 267 263 261 266 276 283 285 271 263 272 276
167 156 131 139 137 145 156 175 196 213 234 270 225 210 202 196 203 209 218 223 228 232 230 236 240 242 241 241 234 234 238 253 276 284 286 282 284 285 283 280 281 291 293
166 164 157 150 164 184 198 203 226 179 157 174 206 160 128 146 114 283 252 236 225 228 225 221 221 225 218 208 221 226 215 246 274 284 279 287 264 270 280 279 266 260 272
165 161 158 154 157 152 177 179 152 184 189 186 160 154 141 81 45 13 329 217 209 232 228 208 203 218 218 217 229 263 271 267 280 289 290 288 310 312 280 296 297 295 297
162 161 152 161 161 151 168 172 181 170 170 168 151 158 224 253 249 344 273 261 257 268 264 260 248 235 240 243 261 290 299 312 306 288 293 289 275 265 280 278 284 300 302
154 151 148 144 146 152 163 153 150 167 154 153 154 163 217 228 218 228 250 249 259 257 249 245 245 244 254 265 272 265 281 291 282 294 284 285 286 289 286 291 296 296 293
156 152 140 138 140 148 145 140 138 147 139 137 129 144 160 220 269 229 238 238 227 228 230 237 249 257 264 265 268 273 276 275 277 281 289 294 296 299 295 297 296 295 293
153 149 146 136 137 135 135 126 137 136 130 126 129 129 132 156 159 183 225 231 234 247 239 263 257 257 257 272 273 276 276 274 279 288 290 299 296 288 289 300 304 303 306
160 157 149 141 138 137 136 132 128 125 120 118 109 109 106 90 136 161 184 208 235 229 248 250 262 276 286 280 291 292 295 288 291 296 300 299 292 287 289 292 293 297 300
156 151 144 139 135 136 137 132 126 124 119 113 105 98 118 129 318 296 288 276 283 303 294 309 314 290 282 307 317 314 305 295 295 297 296 285 273 274 281 286 294 296 295
153 146 138 129 123 126 127 123 118 121 125 106 88 39 355 323 313 303 308 330 324 326 299 280 281 281 283 297 283 297 313 316 316 302 290 291 291 295 298 300 305 309 300
147 140 139 140 130 124 123 122 123 122 114 99 38 335 336 330 335 14 324 328 306 295 296 293 291 288 287 266 285 305 319 320 323 295 298 300 308 308 309 304 302 301 291
150 151 133 175 139 142 140 135 132 144 187 236 131 73 295 323 305 325 288 322 305 320 308 286 282 291 282 277 286 297 304 302 304 307 313 310 309 303 299 296 289 283 288
151 148 155 160 144 150 148 144 165 180 171 156 101 239 225 303 304 308 311 314 322 339 349 353 349 311 289 293 300 308 317 318 313 312 310 310 309 307 300 301 297 298 291